Regional & State Weather Roundups


573 
ASUS44 KHUN 182010
RWRHUN
       
WEATHER ROUNDUP FOR THE TENNESSEE VALLEY
NATIONAL WEATHER SERVICE HUNTSVILLE AL
300 PM CDT MON JUN 18 2018
ALZ001>004-182100-
NORTHWEST ALABAMA
  
CITY           SKY/WX    TMP DP  RH WIND       PRES   REMARKS
COURTLAND HCN    N/A     86 N/A N/A NW5         N/A                   
RUSSELLVILLE     N/A     86 N/A N/A MISG        N/A                   
SHOALS AIRPORT FAIR      91  68  46 W7        30.12F HX  95           
SHOALS TVA RES   N/A     91 N/A N/A MISG        N/A                   
$$
ALZ005>007-016-182100-
NORTH CENTRAL ALABAMA
  
CITY           SKY/WX    TMP DP  RH WIND       PRES   REMARKS
CULLMAN AG STN   N/A     86 N/A N/A W8          N/A                   
DECATUR AP     FAIR      90  67  46 SW3       30.12F HX  93           
HUNTSVILLE AP  PTSUNNY   90  70  51 NE7       30.11F HX  95           
MERIDIANVILLE  SUNNY     89  71  54 MISG      30.12F HX  95           
REDSTONE ARSN  PTSUNNY   79  71  77 E9        30.11F                  
VINEMONT AP    FAIR      87  69  55 CALM      30.16F HX  91           
$$
 
ALZ008>010-182100-
NORTHEAST ALABAMA
  
CITY           SKY/WX    TMP DP  RH WIND       PRES   REMARKS
ALBERTVILLE    PTSUNNY   88  73  62 N5        30.13F HX  96           
FORT PAYNE     FAIR      88  63  42 NW7       30.11F                  
SCOTTSBORO AP  FAIR      91  70  49 W7        30.11F HX  97           
SCOTTSBORO HCN   N/A     90 N/A N/A MISG        N/A                   
VALLEY HEAD      N/A     88 N/A N/A MISG        N/A                   
$$
TNZ076-096-097-182100-
SOUTHEASTERN MIDDLE TENNESSEE
  
CITY           SKY/WX    TMP DP  RH WIND       PRES   REMARKS
TULLAHOMA      MOSUNNY   90  70  51 CALM      30.12F HX  95           
WINCHESTER     SUNNY     90  64  43 W5        30.12F HX  91           
$$
 
...SURROUNDING SITES...
  
CITY           SKY/WX    TMP DP  RH WIND       PRES   REMARKS
ATLANTA        PTSUNNY   85  68  56 SE9       30.11F THUNDER          
ANNISTON       FAIR      90  69  50 E6        30.11F HX  94           
BIRMINGHAM     FAIR      90  68  48 NW10      30.14F HX  94           
CHATTANOOGA    PTSUNNY   93  67  42 NW5       30.10F HX  96           
CORINTH        FAIR      90  70  51 CALM      30.10F HX  95           
DALTON         FAIR      90  70  51 NW5       30.12F HX  95           
GADSDEN        FAIR      90  74  59 MISG      30.11F HX  99           
GOLDEN TRNGL   CLOUDY    93  66  40 VRB6      30.10F HX  96           
HALEYVILLE     FAIR      90  66  45 VRB7      30.16F HX  92           
JACKSON TN     FAIR      92  68  45 W6        30.10F HX  96           
MEMPHIS        FAIR      92  65  40 SW7       30.09F HX  94           
NASHVILLE      NOT AVBL                                               
OXFORD MS      FAIR      90  63  40 SW6       30.12F HX  90           
ROME           FAIR      93  70  46 VRB5      30.10F HX  99           
SELMER         PTSUNNY   88  70  55 CALM      30.11F HX  92           
TUPELO         FAIR      91  64  40 VRB3      30.11F HX  92           
TUSCALOOSA     FAIR      94  61  33 CALM      30.10F HX  94           
$$
...GULF COAST WEATHER...
  
CITY           SKY/WX    TMP DP  RH WIND       PRES   REMARKS
GULFPORT       FAIR      86  75  69 SE14      30.10F HX  95           
PASCAGOULA     FAIR      88  75  65 SE9       30.11F HX  97           
MOBILE         PTSUNNY   82  70  66 CALM      30.13F                  
GULF SHORES    FAIR      88  75  65 SE10      30.11F HX  97           
PENSACOLA      PTSUNNY   86  72  62 S8        30.10  HX  92           
DESTIN         FAIR      89  72  56 SW5       30.09F HX  96           
APPALACHICOLA  FAIR      90  79  70 S10       30.07F HX 106           
$$